| time (UTC) | temp F | wind direction | speed MPH | gust MPH | rain 1hr in | rain 24hr in | rain mn in | humidity % | barometer mb |
| 20260506015518 | 68 | 292 | 2.0 | 7.0 | 0.00 | 0.30 | 0.01 | 38 | 1012.2 |
| 20260506015018 | 68 | 277 | 2.0 | 9.0 | 0.00 | 0.30 | 0.01 | 38 | 1012.1 |
| 20260506014543 | 68 | 243 | 3.0 | 9.0 | 0.00 | 0.30 | 0.01 | 37 | 1012.1 |
| 20260506014017 | 69 | 319 | 4.0 | 8.0 | 0.00 | 0.30 | 0.01 | 37 | 1012.1 |
| 20260506013518 | 69 | 13 | 1.0 | 7.0 | 0.00 | 0.30 | 0.01 | 39 | 1012.0 |
| 20260506013035 | 69 | 64 | 2.0 | 9.0 | 0.00 | 0.30 | 0.01 | 37 | 1012.1 |
| 20260506012517 | 69 | 288 | 4.0 | 9.0 | 0.00 | 0.30 | 0.01 | 37 | 1012.1 |
| 20260506012018 | 69 | 315 | 3.0 | 8.0 | 0.00 | 0.30 | 0.01 | 38 | 1012.1 |
| 20260506011538 | 69 | 308 | 4.0 | 8.0 | 0.00 | 0.30 | 0.01 | 35 | 1012.1 |
| 20260506011022 | 69 | 327 | 3.0 | 9.0 | 0.00 | 0.30 | 0.01 | 37 | 1012.0 |
| 20260506010518 | 70 | 313 | 4.0 | 9.0 | 0.00 | 0.30 | 0.01 | 36 | 1012.0 |
| 20260506010041 | 70 | 15 | 2.0 | 8.0 | 0.00 | 0.30 | 0.01 | 38 | 1012.0 |
| 20260506005519 | 70 | 327 | 3.0 | 9.0 | 0.00 | 0.45 | 0.01 | 37 | 1012.0 |
| 20260506005017 | 70 | 19 | 3.0 | 9.0 | 0.00 | 0.45 | 0.01 | 36 | 1012.0 |
| 20260506004546 | 70 | 28 | 3.0 | 8.0 | 0.00 | 0.45 | 0.01 | 38 | 1012.2 |
| 20260506004017 | 69 | 328 | 2.0 | 9.0 | 0.00 | 0.45 | 0.01 | 38 | 1012.2 |
| 20260506003519 | 68 | 59 | 3.0 | 9.0 | 0.00 | 0.45 | 0.01 | 38 | 1012.2 |
| 20260506003039 | 68 | 290 | 1.0 | 9.0 | 0.00 | 0.45 | 0.01 | 39 | 1012.4 |
| 20260506002517 | 67 | 271 | 2.0 | 10.0 | 0.00 | 0.45 | 0.01 | 40 | 1012.3 |
| 20260506002019 | 67 | 294 | 5.0 | 10.0 | 0.00 | 0.45 | 0.01 | 38 | 1012.3 |
| 20260506001535 | 68 | 271 | 2.0 | 8.0 | 0.00 | 0.45 | 0.01 | 38 | 1012.3 |
| 20260506001017 | 69 | 360 | 1.0 | 5.0 | 0.00 | 0.45 | 0.01 | 37 | 1012.3 |
| 20260506000518 | 69 | 282 | 2.0 | 8.0 | 0.00 | 0.45 | 0.01 | 40 | 1012.4 |
| 20260506000033 | 68 | 83 | 2.0 | 8.0 | 0.00 | 0.45 | 0.01 | 39 | 1012.4 |
| 20260505235518 | 68 | 82 | 4.0 | 9.0 | 0.00 | 0.45 | 0.01 | 38 | 1012.3 |
| 20260505235018 | 67 | 88 | 4.0 | 9.0 | 0.00 | 0.45 | 0.01 | 40 | 1012.3 |
| 20260505234536 | 68 | 126 | 3.0 | 8.0 | 0.00 | 0.45 | 0.01 | 37 | 1012.3 |
| 20260505234018 | 68 | 80 | 2.0 | 7.0 | 0.00 | 0.45 | 0.01 | 37 | 1012.3 |
| 20260505233520 | 68 | 171 | 3.0 | 8.0 | 0.00 | 0.45 | 0.01 | 43 | 1012.3 |
| 20260505233032 | 66 | 259 | 3.0 | 8.0 | 0.00 | 0.45 | 0.01 | 42 | 1012.4 |
| 20260505232517 | 67 | 242 | 3.0 | 8.0 | 0.00 | 0.45 | 0.01 | 40 | 1012.4 |
| 20260505232015 | 67 | 226 | 3.0 | 11.0 | 0.00 | 0.45 | 0.01 | 40 | 1012.5 |
| 20260505231534 | 67 | 36 | 3.0 | 11.0 | 0.00 | 0.45 | 0.01 | 42 | 1012.5 |
| 20260505231017 | 68 | 227 | 2.0 | 8.0 | 0.00 | 0.45 | 0.01 | 38 | 1012.6 |
| 20260505230519 | 67 | 111 | 3.0 | 8.0 | 0.00 | 0.45 | 0.01 | 39 | 1012.5 |
| 20260505230045 | 67 | 25 | 2.0 | 8.0 | 0.00 | 0.45 | 0.01 | 42 | 1012.7 |
| 20260505225517 | 67 | 349 | 2.0 | 9.0 | 0.00 | 0.45 | 0.01 | 44 | 1012.8 |
| 20260505225022 | 66 | 11 | 1.0 | 9.0 | 0.00 | 0.45 | 0.01 | 46 | 1012.8 |
| 20260505224538 | 66 | 22 | 4.0 | 9.0 | 0.00 | 0.45 | 0.01 | 42 | 1012.8 |
| 20260505224018 | 67 | 0 | 0.0 | 6.0 | 0.00 | 0.45 | 0.01 | 43 | 1012.8 |
| 20260505223518 | 66 | 39 | 2.0 | 7.0 | 0.00 | 0.45 | 0.01 | 45 | 1012.8 |
| 20260505223035 | 66 | 166 | 0.0 | 7.0 | 0.00 | 0.45 | 0.01 | 45 | 1013.0 |
| 20260505222519 | 66 | 244 | 3.0 | 7.0 | 0.00 | 0.45 | 0.01 | 44 | 1013.0 |
| 20260505222017 | 66 | 321 | 2.0 | 4.0 | 0.00 | 0.45 | 0.01 | 49 | 1013.0 |
| 20260505221535 | 65 | 191 | 1.0 | 5.0 | 0.00 | 0.45 | 0.01 | 48 | 1013.1 |
| 20260505221017 | 65 | 155 | 2.0 | 5.0 | 0.00 | 0.45 | 0.01 | 44 | 1013.2 |
| 20260505220517 | 65 | 185 | 0.0 | 8.0 | 0.00 | 0.45 | 0.01 | 47 | 1013.2 |
| 20260505220041 | 64 | 0 | 2.0 | 8.0 | 0.00 | 0.45 | 0.01 | 48 | 1013.3 |
| 20260505215517 | 65 | 330 | 1.0 | 8.0 | 0.00 | 0.45 | 0.01 | 50 | 1013.4 |
| 20260505215022 | 65 | 225 | 3.0 | 8.0 | 0.00 | 0.45 | 0.01 | 48 | 1013.4 |
| 20260505214537 | 65 | 74 | 2.0 | 7.0 | 0.00 | 0.45 | 0.01 | 46 | 1013.5 |
| 20260505214018 | 64 | 267 | 2.0 | 8.0 | 0.00 | 0.45 | 0.01 | 50 | 1013.5 |
| 20260505213520 | 64 | 0 | 2.0 | 8.0 | 0.00 | 0.45 | 0.01 | 50 | 1013.5 |
| 20260505213043 | 63 | 350 | 4.0 | 8.0 | 0.00 | 0.45 | 0.01 | 51 | 1013.6 |
| 20260505212517 | 64 | 71 | 2.0 | 7.0 | 0.00 | 0.45 | 0.01 | 49 | 1013.7 |
| 20260505212020 | 63 | 323 | 1.0 | 5.0 | 0.00 | 0.45 | 0.01 | 50 | 1013.7 |
| 20260505211534 | 63 | 195 | 1.0 | 9.0 | 0.00 | 0.45 | 0.01 | 51 | 1013.8 |
| 20260505211019 | 62 | 227 | 2.0 | 10.0 | 0.00 | 0.45 | 0.01 | 50 | 1014.0 |
| 20260505210520 | 63 | 350 | 3.0 | 10.0 | 0.00 | 0.45 | 0.01 | 53 | 1014.0 |
| 20260505210033 | 62 | 0 | 3.0 | 8.0 | 0.00 | 0.45 | 0.01 | 54 | 1014.0 |
| 20260505205520 | 63 | 325 | 3.0 | 8.0 | 0.00 | 0.46 | 0.01 | 54 | 1014.0 |
| 20260505205017 | 61 | 0 | 2.0 | 6.0 | 0.00 | 0.46 | 0.01 | 51 | 1014.0 |
| 20260505204534 | 62 | 104 | 2.0 | 6.0 | 0.00 | 0.46 | 0.01 | 52 | 1014.0 |
| 20260505204020 | 62 | 350 | 2.0 | 6.0 | 0.00 | 0.46 | 0.01 | 59 | 1014.1 |
| 20260505203517 | 63 | 12 | 1.0 | 8.0 | 0.00 | 0.46 | 0.01 | 59 | 1014.0 |
| 20260505203037 | 61 | 225 | 4.0 | 8.0 | 0.00 | 0.46 | 0.01 | 57 | 1014.0 |
| 20260505202516 | 61 | 156 | 2.0 | 6.0 | 0.00 | 0.46 | 0.01 | 59 | 1014.0 |
| 20260505202017 | 61 | 90 | 1.0 | 4.0 | 0.00 | 0.46 | 0.01 | 62 | 1014.0 |
| 20260505201536 | 59 | 116 | 1.0 | 9.0 | 0.00 | 0.46 | 0.01 | 63 | 1014.1 |
| 20260505201019 | 59 | 347 | 3.0 | 9.0 | 0.00 | 0.46 | 0.01 | 60 | 1014.1 |
| 20260505200518 | 60 | 65 | 1.0 | 4.0 | 0.00 | 0.46 | 0.01 | 61 | 1014.1 |
| 20260505200036 | 60 | 17 | 1.0 | 4.0 | 0.00 | 0.46 | 0.01 | 66 | 1014.2 |
| 20260505195521 | 60 | 0 | 2.0 | 5.0 | 0.00 | 0.46 | 0.01 | 59 | 1014.2 |
| 20260505195017 | 60 | 0 | 1.0 | 7.0 | 0.00 | 0.46 | 0.01 | 60 | 1014.3 |
| 20260505194536 | 61 | 59 | 2.0 | 9.0 | 0.00 | 0.46 | 0.01 | 59 | 1014.3 |
| 20260505194018 | 60 | 0 | 2.0 | 9.0 | 0.00 | 0.46 | 0.01 | 67 | 1014.3 |
| 20260505193520 | 59 | 101 | 1.0 | 6.0 | 0.00 | 0.46 | 0.01 | 66 | 1014.3 |
| 20260505193052 | 58 | 55 | 1.0 | 4.0 | 0.00 | 0.46 | 0.01 | 67 | 1014.3 |
| 20260505192518 | 58 | 28 | 1.0 | 5.0 | 0.00 | 0.46 | 0.01 | 66 | 1014.3 |
| 20260505192018 | 59 | 71 | 1.0 | 6.0 | 0.00 | 0.46 | 0.01 | 66 | 1014.3 |
| 20260505191536 | 60 | 62 | 2.0 | 6.0 | 0.00 | 0.46 | 0.01 | 67 | 1014.3 |
| 20260505191017 | 59 | 66 | 2.0 | 6.0 | 0.00 | 0.46 | 0.01 | 66 | 1014.2 |
| 20260505190517 | 59 | 350 | 2.0 | 9.0 | 0.00 | 0.46 | 0.01 | 71 | 1014.2 |
| 20260505190041 | 58 | 0 | 1.0 | 9.0 | 0.00 | 0.46 | 0.01 | 72 | 1014.1 |
| 20260505185519 | 58 | 75 | 2.0 | 6.0 | 0.00 | 0.46 | 0.01 | 69 | 1014.1 |
| 20260505185018 | 57 | 82 | 1.0 | 6.0 | 0.00 | 0.46 | 0.01 | 70 | 1014.2 |
| 20260505184535 | 56 | 0 | 1.0 | 6.0 | 0.00 | 0.46 | 0.01 | 67 | 1014.2 |
| 20260505184018 | 56 | 0 | 2.0 | 5.0 | 0.00 | 0.46 | 0.01 | 69 | 1014.2 |
| 20260505183519 | 56 | 0 | 1.0 | 5.0 | 0.00 | 0.46 | 0.01 | 68 | 1014.3 |
| 20260505183035 | 56 | 0 | 0.0 | 7.0 | 0.00 | 0.46 | 0.01 | 77 | 1014.2 |
| 20260505182518 | 56 | 79 | 1.0 | 7.0 | 0.00 | 0.46 | 0.01 | 71 | 1014.3 |
| 20260505182018 | 55 | 86 | 1.0 | 6.0 | 0.00 | 0.46 | 0.01 | 73 | 1014.3 |
| 20260505181540 | 55 | 93 | 1.0 | 7.0 | 0.00 | 0.46 | 0.01 | 78 | 1014.3 |
| 20260505181019 | 53 | 110 | 2.0 | 7.0 | 0.00 | 0.46 | 0.01 | 77 | 1014.3 |
| 20260505180519 | 53 | 157 | 2.0 | 7.0 | 0.00 | 0.46 | 0.01 | 77 | 1014.2 |
| 20260505180044 | 53 | 213 | 3.0 | 5.0 | 0.00 | 0.46 | 0.01 | 75 | 1014.2 |
| 20260505175521 | 54 | 169 | 1.0 | 5.0 | 0.00 | 0.46 | 0.01 | 80 | 1014.2 |
| 20260505175019 | 53 | 66 | 0.0 | 4.0 | 0.00 | 0.46 | 0.01 | 79 | 1014.2 |
| 20260505174535 | 53 | 40 | 1.0 | 4.0 | 0.00 | 0.46 | 0.01 | 79 | 1014.2 |
| 20260505174019 | 52 | 0 | 0.0 | 2.0 | 0.00 | 0.46 | 0.01 | 82 | 1014.1 |
| 20260505173522 | 51 | 0 | 0.0 | 3.0 | 0.00 | 0.46 | 0.01 | 82 | 1014.0 |
| 20260505173035 | 51 | 101 | 0.0 | 3.0 | 0.00 | 0.46 | 0.01 | 80 | 1014.0 |
| 20260505172518 | 51 | 101 | 0.0 | 2.0 | 0.00 | 0.46 | 0.01 | 82 | 1013.9 |
| 20260505172018 | 51 | 100 | 0.0 | 3.0 | 0.00 | 0.46 | 0.01 | 81 | 1013.9 |
| 20260505171547 | 50 | 98 | 0.0 | 3.0 | 0.00 | 0.46 | 0.01 | 82 | 1013.8 |
| 20260505171019 | 50 | 99 | 0.0 | 3.0 | 0.00 | 0.46 | 0.01 | 83 | 1013.9 |
| 20260505170520 | 50 | 0 | 0.0 | 3.0 | 0.00 | 0.46 | 0.01 | 85 | 1013.8 |
| 20260505170041 | 49 | 0 | 0.0 | 3.0 | 0.00 | 0.46 | 0.01 | 86 | 1013.8 |
| 20260505165519 | 49 | 100 | 1.0 | 3.0 | 0.00 | 0.46 | 0.01 | 85 | 1013.8 |
| 20260505165019 | 49 | 94 | 0.0 | 4.0 | 0.00 | 0.46 | 0.01 | 85 | 1013.8 |
| 20260505164540 | 48 | 95 | 1.0 | 4.0 | 0.00 | 0.46 | 0.01 | 85 | 1013.8 |
| 20260505164019 | 48 | 92 | 2.0 | 4.0 | 0.00 | 0.46 | 0.01 | 85 | 1013.7 |
| 20260505163519 | 48 | 0 | 1.0 | 4.0 | 0.00 | 0.46 | 0.01 | 85 | 1013.7 |
| 20260505163041 | 48 | 108 | 1.0 | 4.0 | 0.00 | 0.46 | 0.01 | 85 | 1013.7 |
| 20260505162518 | 47 | 116 | 1.0 | 3.0 | 0.00 | 0.46 | 0.01 | 85 | 1013.6 |
| 20260505162019 | 47 | 0 | 0.0 | 3.0 | 0.00 | 0.46 | 0.01 | 87 | 1013.6 |
| 20260505161532 | 47 | 0 | 1.0 | 3.0 | 0.00 | 0.46 | 0.01 | 87 | 1013.5 |
| 20260505161020 | 47 | 166 | 0.0 | 4.0 | 0.00 | 0.46 | 0.01 | 88 | 1013.5 |
| 20260505160519 | 47 | 0 | 1.0 | 4.0 | 0.00 | 0.46 | 0.01 | 88 | 1013.4 |
| 20260505153046 | 46 | 0 | 0.0 | 2.0 | 0.00 | 0.46 | 0.01 | 89 | 1013.2 |
| 20260505152518 | 46 | 0 | 0.0 | 2.0 | 0.00 | 0.46 | 0.01 | 89 | 1013.2 |
| 20260505152024 | 46 | 215 | 0.0 | 1.0 | 0.00 | 0.46 | 0.01 | 90 | 1013.1 |
| 20260505151538 | 46 | 0 | 0.0 | 1.0 | 0.00 | 0.46 | 0.01 | 90 | 1013.0 |
| 20260505151018 | 45 | 0 | 0.0 | 1.0 | 0.00 | 0.46 | 0.01 | 90 | 1012.9 |
| 20260505150518 | 45 | 0 | 0.0 | 0.0 | 0.00 | 0.46 | 0.01 | 91 | 1012.8 |
| 20260505140519 | 44 | 0 | 0.0 | 0.0 | 0.00 | 0.46 | 0.01 | 94 | 1012.3 |
| 20260505125020 | 44 | 0 | 0.0 | 0.0 | 0.00 | 0.46 | 0.01 | 94 | 1011.5 |
| 20260505124544 | 44 | 0 | 0.0 | 0.0 | 0.00 | 0.46 | 0.01 | 94 | 1011.5 |
| 20260505124020 | 44 | 0 | 0.0 | 0.0 | 0.00 | 0.46 | 0.01 | 94 | 1011.5 |
| 20260505123518 | 44 | 0 | 0.0 | 0.0 | 0.00 | 0.46 | 0.01 | 94 | 1011.4 |
| 20260505123052 | 44 | 0 | 0.0 | 0.0 | 0.00 | 0.46 | 0.01 | 94 | 1011.4 |
| 20260505122518 | 44 | 0 | 0.0 | 0.0 | 0.00 | 0.46 | 0.01 | 94 | 1011.5 |
| 20260505122022 | 44 | 0 | 0.0 | 0.0 | 0.00 | 0.46 | 0.01 | 94 | 1011.4 |
| 20260505121535 | 44 | 0 | 0.0 | 0.0 | 0.00 | 0.46 | 0.01 | 94 | 1011.5 |
| 20260505121019 | 44 | 0 | 0.0 | 0.0 | 0.00 | 0.46 | 0.01 | 94 | 1011.4 |
| 20260505120518 | 44 | 0 | 0.0 | 0.0 | 0.00 | 0.46 | 0.01 | 94 | 1011.4 |
| 20260505120052 | 44 | 0 | 0.0 | 0.0 | 0.00 | 0.46 | 0.01 | 94 | 1011.3 |
| 20260505115518 | 44 | 0 | 0.0 | 0.0 | 0.00 | 0.46 | 0.01 | 94 | 1011.3 |
| 20260505115018 | 44 | 0 | 0.0 | 0.0 | 0.00 | 0.46 | 0.01 | 94 | 1011.3 |
| 20260505114541 | 44 | 0 | 0.0 | 0.0 | 0.00 | 0.46 | 0.01 | 94 | 1011.4 |
| 20260505114017 | 44 | 0 | 0.0 | 0.0 | 0.00 | 0.46 | 0.01 | 94 | 1011.5 |
| 20260505113519 | 44 | 0 | 0.0 | 0.0 | 0.00 | 0.46 | 0.01 | 94 | 1011.4 |
| 20260505113035 | 44 | 0 | 0.0 | 0.0 | 0.00 | 0.46 | 0.01 | 94 | 1011.3 |
| 20260505112522 | 44 | 0 | 0.0 | 0.0 | 0.00 | 0.46 | 0.01 | 94 | 1011.3 |
| 20260505112019 | 44 | 0 | 0.0 | 0.0 | 0.00 | 0.46 | 0.01 | 94 | 1011.3 |
| 20260505111536 | 44 | 0 | 0.0 | 0.0 | 0.00 | 0.46 | 0.01 | 94 | 1011.3 |
| 20260505111022 | 44 | 0 | 0.0 | 0.0 | 0.00 | 0.46 | 0.01 | 94 | 1011.3 |
| 20260505110522 | 44 | 0 | 0.0 | 0.0 | 0.00 | 0.46 | 0.01 | 94 | 1011.3 |
| 20260505102019 | 43 | 0 | 0.0 | 0.0 | 0.00 | 0.46 | 0.01 | 93 | 1011.5 |
| 20260505101536 | 43 | 0 | 0.0 | 0.0 | 0.00 | 0.46 | 0.01 | 93 | 1011.6 |
| 20260505101019 | 43 | 0 | 0.0 | 0.0 | 0.00 | 0.46 | 0.01 | 93 | 1011.5 |
| 20260505100519 | 43 | 0 | 0.0 | 0.0 | 0.00 | 0.46 | 0.01 | 93 | 1011.6 |
| 20260505100038 | 43 | 0 | 0.0 | 0.0 | 0.00 | 0.46 | 0.01 | 93 | 1011.7 |
| 20260505095518 | 43 | 0 | 0.0 | 0.0 | 0.00 | 0.46 | 0.01 | 93 | 1011.7 |
| 20260505095018 | 43 | 0 | 0.0 | 0.0 | 0.00 | 0.46 | 0.01 | 93 | 1011.7 |
| 20260505094534 | 43 | 0 | 0.0 | 0.0 | 0.00 | 0.46 | 0.01 | 93 | 1011.7 |
| 20260505094018 | 43 | 0 | 0.0 | 0.0 | 0.01 | 0.46 | 0.01 | 93 | 1011.8 |
| 20260505093518 | 43 | 0 | 0.0 | 0.0 | 0.01 | 0.46 | 0.01 | 93 | 1011.8 |
| 20260505093034 | 43 | 0 | 0.0 | 0.0 | 0.01 | 0.46 | 0.01 | 93 | 1011.8 |
| 20260505092519 | 43 | 0 | 0.0 | 0.0 | 0.01 | 0.46 | 0.01 | 92 | 1011.8 |
| 20260505092019 | 43 | 0 | 0.0 | 0.0 | 0.01 | 0.46 | 0.01 | 93 | 1011.9 |
| 20260505091538 | 43 | 0 | 0.0 | 0.0 | 0.01 | 0.46 | 0.01 | 92 | 1012.0 |
| 20260505091019 | 43 | 0 | 0.0 | 0.0 | 0.01 | 0.46 | 0.01 | 92 | 1011.9 |
| 20260505090518 | 44 | 0 | 0.0 | 0.0 | 0.01 | 0.46 | 0.01 | 92 | 1011.7 |
| 20260505090039 | 44 | 0 | 0.0 | 0.0 | 0.01 | 0.46 | 0.01 | 92 | 1011.8 |
| 20260505085518 | 44 | 0 | 0.0 | 0.0 | 0.01 | 0.46 | 0.01 | 93 | 1012.0 |
| 20260505085019 | 44 | 0 | 0.0 | 0.0 | 0.01 | 0.46 | 0.01 | 92 | 1012.1 |
| 20260505084554 | 44 | 0 | 0.0 | 0.0 | 0.01 | 0.46 | 0.01 | 92 | 1012.1 |
| 20260505084018 | 44 | 0 | 0.0 | 0.0 | 0.00 | 0.45 | 0.00 | 92 | 1012.2 |
| 20260505083522 | 44 | 0 | 0.0 | 0.0 | 0.00 | 0.45 | 0.00 | 92 | 1012.2 |
| 20260505083129 | 44 | 0 | 0.0 | 0.0 | 0.00 | 0.45 | 0.00 | 92 | 1012.3 |
| 20260505082518 | 44 | 0 | 0.0 | 0.0 | 0.00 | 0.45 | 0.00 | 92 | 1011.9 |
| 20260505082018 | 44 | 0 | 0.0 | 0.0 | 0.00 | 0.45 | 0.00 | 92 | 1012.2 |
| 20260505081551 | 44 | 0 | 0.0 | 0.0 | 0.00 | 0.45 | 0.00 | 92 | 1012.3 |
| 20260505081018 | 44 | 0 | 0.0 | 0.0 | 0.00 | 0.45 | 0.00 | 92 | 1012.2 |
| 20260505080517 | 44 | 0 | 0.0 | 0.0 | 0.00 | 0.45 | 0.00 | 92 | 1012.2 |
| 20260505080044 | 44 | 0 | 0.0 | 1.0 | 0.00 | 0.45 | 0.00 | 92 | 1012.2 |
| 20260505075523 | 44 | 0 | 0.0 | 3.0 | 0.00 | 0.45 | 0.00 | 92 | 1012.0 |
| 20260505075017 | 44 | 0 | 0.0 | 4.0 | 0.01 | 0.45 | 0.00 | 92 | 1012.0 |
| 20260505074533 | 44 | 231 | 1.0 | 4.0 | 0.01 | 0.45 | 0.00 | 92 | 1011.9 |
| 20260505074014 | 44 | 274 | 2.0 | 4.0 | 0.02 | 0.45 | 0.00 | 92 | 1012.1 |
| 20260505073514 | 44 | 0 | 0.0 | 0.0 | 0.02 | 0.45 | 0.00 | 92 | 1012.3 |
| 20260505073048 | 44 | 0 | 0.0 | 0.0 | 0.02 | 0.45 | 0.00 | 92 | 1012.5 |
| 20260505072518 | 44 | 0 | 0.0 | 0.0 | 0.02 | 0.45 | 0.00 | 92 | 1012.7 |
| 20260505072017 | 44 | 0 | 0.0 | 0.0 | 0.02 | 0.45 | 0.00 | 92 | 1012.8 |
| 20260505071545 | 44 | 0 | 0.0 | 1.0 | 0.02 | 0.45 | 0.00 | 92 | 1012.7 |
| 20260505071015 | 44 | 0 | 0.0 | 1.0 | 0.02 | 0.45 | 0.00 | 92 | 1012.6 |
| 20260505070520 | 44 | 0 | 0.0 | 1.0 | 0.02 | 0.45 | 0.00 | 92 | 1012.5 |
| 20260505070041 | 44 | 0 | 0.0 | 3.0 | 0.02 | 0.45 | 0.00 | 92 | 1012.3 |
| 20260505065523 | 44 | 0 | 0.0 | 3.0 | 0.02 | 0.45 | 0.45 | 91 | 1012.2 |
| 20260505065017 | 44 | 0 | 1.0 | 3.0 | 0.01 | 0.44 | 0.44 | 91 | 1011.9 |
| 20260505064536 | 44 | 0 | 0.0 | 3.0 | 0.01 | 0.44 | 0.44 | 91 | 1012.0 |
| 20260505064014 | 44 | 219 | 2.0 | 4.0 | 0.00 | 0.43 | 0.43 | 92 | 1011.7 |
| 20260505063517 | 44 | 196 | 1.0 | 4.0 | 0.01 | 0.43 | 0.43 | 91 | 1011.9 |
| 20260505063038 | 44 | 200 | 0.0 | 4.0 | 0.01 | 0.43 | 0.43 | 92 | 1011.7 |
| 20260505062517 | 43 | 0 | 0.0 | 3.0 | 0.01 | 0.43 | 0.43 | 91 | 1011.8 |
| 20260505062018 | 43 | 0 | 0.0 | 4.0 | 0.01 | 0.43 | 0.43 | 91 | 1011.8 |
| 20260505061533 | 43 | 0 | 1.0 | 4.0 | 0.02 | 0.43 | 0.43 | 91 | 1011.8 |
| 20260505061014 | 43 | 150 | 2.0 | 5.0 | 0.02 | 0.43 | 0.43 | 91 | 1011.7 |
| 20260505060518 | 43 | 130 | 1.0 | 6.0 | 0.02 | 0.43 | 0.43 | 91 | 1011.6 |
| 20260505060051 | 43 | 136 | 2.0 | 6.0 | 0.02 | 0.43 | 0.43 | 91 | 1011.6 |
| 20260505055517 | 44 | 142 | 2.0 | 5.0 | 0.02 | 0.43 | 0.43 | 91 | 1011.7 |
| 20260505055019 | 44 | 171 | 1.0 | 4.0 | 0.02 | 0.43 | 0.43 | 92 | 1011.7 |
| 20260505054536 | 44 | 204 | 1.0 | 4.0 | 0.02 | 0.43 | 0.43 | 92 | 1011.8 |
| 20260505054020 | 44 | 170 | 1.0 | 5.0 | 0.02 | 0.43 | 0.43 | 92 | 1012.0 |
| 20260505053518 | 44 | 171 | 2.0 | 5.0 | 0.01 | 0.42 | 0.42 | 92 | 1012.0 |
| 20260505053037 | 44 | 198 | 3.0 | 5.0 | 0.01 | 0.42 | 0.42 | 92 | 1011.8 |
| 20260505052517 | 44 | 223 | 2.0 | 4.0 | 0.01 | 0.42 | 0.42 | 92 | 1012.1 |
| 20260505052017 | 44 | 0 | 0.0 | 2.0 | 0.01 | 0.42 | 0.42 | 92 | 1012.2 |
| 20260505051532 | 44 | 0 | 0.0 | 2.0 | 0.00 | 0.41 | 0.41 | 92 | 1012.2 |
| 20260505051015 | 44 | 0 | 0.0 | 2.0 | 0.00 | 0.41 | 0.41 | 92 | 1012.1 |
| 20260505050518 | 44 | 0 | 0.0 | 2.0 | 0.00 | 0.41 | 0.41 | 92 | 1012.1 |
| 20260505041548 | 44 | 331 | 0.0 | 11.0 | 0.03 | 0.41 | 0.41 | 91 | 1011.9 |
| 20260505041014 | 44 | 335 | 4.0 | 11.0 | 0.05 | 0.41 | 0.41 | 90 | 1012.0 |
| 20260505040521 | 44 | 323 | 6.0 | 11.0 | 0.08 | 0.41 | 0.41 | 90 | 1011.9 |
| 20260505040036 | 44 | 317 | 3.0 | 7.0 | 0.09 | 0.41 | 0.41 | 89 | 1011.8 |
| 20260505035522 | 44 | 0 | 2.0 | 7.0 | 0.09 | 0.41 | 0.41 | 89 | 1011.3 |
| 20260505035018 | 45 | 107 | 2.0 | 6.0 | 0.09 | 0.41 | 0.41 | 89 | 1011.4 |
| 20260505034532 | 45 | 80 | 0.0 | 10.0 | 0.09 | 0.41 | 0.41 | 90 | 1011.3 |
| 20260505034017 | 45 | 142 | 3.0 | 15.0 | 0.09 | 0.41 | 0.41 | 90 | 1011.2 |
| 20260505033522 | 45 | 186 | 5.0 | 15.0 | 0.09 | 0.41 | 0.41 | 91 | 1010.8 |
| 20260505033033 | 44 | 201 | 7.0 | 13.0 | 0.08 | 0.40 | 0.40 | 90 | 1010.5 |
| 20260505032516 | 44 | 205 | 3.0 | 7.0 | 0.08 | 0.40 | 0.40 | 89 | 1011.3 |
| 20260505032016 | 45 | 146 | 2.0 | 7.0 | 0.06 | 0.38 | 0.38 | 88 | 1011.8 |
| 20260505031535 | 45 | 108 | 2.0 | 5.0 | 0.05 | 0.37 | 0.37 | 88 | 1011.9 |
| 20260505031018 | 45 | 242 | 2.0 | 4.0 | 0.03 | 0.35 | 0.35 | 87 | 1011.7 |
| 20260505030518 | 45 | 0 | 0.0 | 4.0 | 0.01 | 0.33 | 0.33 | 86 | 1012.0 |
| 20260505030044 | 46 | 0 | 0.0 | 4.0 | 0.00 | 0.32 | 0.32 | 87 | 1011.8 |
| 20260505025520 | 46 | 82 | 1.0 | 4.0 | 0.00 | 0.32 | 0.32 | 88 | 1011.9 |
| 20260505025018 | 46 | 85 | 2.0 | 4.0 | 0.00 | 0.32 | 0.32 | 88 | 1012.0 |
| 20260505024533 | 46 | 78 | 1.0 | 3.0 | 0.00 | 0.32 | 0.32 | 88 | 1011.8 |
| 20260505024018 | 46 | 55 | 0.0 | 3.0 | 0.00 | 0.32 | 0.32 | 88 | 1011.7 |
| 20260505023515 | 46 | 65 | 0.0 | 3.0 | 0.01 | 0.32 | 0.32 | 88 | 1011.5 |
| 20260505023034 | 46 | 0 | 0.0 | 7.0 | 0.04 | 0.32 | 0.32 | 87 | 1011.3 |
| 20260505022514 | 46 | 0 | 1.0 | 7.0 | 0.06 | 0.32 | 0.32 | 87 | 1011.3 |
| 20260505022016 | 46 | 141 | 3.0 | 7.0 | 0.08 | 0.32 | 0.32 | 86 | 1011.3 |
| 20260505021536 | 46 | 88 | 2.0 | 7.0 | 0.10 | 0.32 | 0.32 | 86 | 1011.3 |
| 20260505021017 | 46 | 0 | 2.0 | 7.0 | 0.11 | 0.32 | 0.32 | 85 | 1010.9 |
| 20260505020518 | 46 | 153 | 2.0 | 16.0 | 0.13 | 0.32 | 0.32 | 84 | 1010.7 |
| 20260505020040 | 46 | 249 | 2.0 | 22.0 | 0.16 | 0.32 | 0.32 | 84 | 1010.5 |